QPF
0.00 0.00 0.00 0.00 0.00 0.00 0.00 0.00 0.00 0.00 0.00 0.00 0.00 0.00 0.00 0.00 0.00 0.00 0.00 0.00 0.00 0.00 0.00 0.00 0.00 0.00 0.00 0.00 0.00 0.00 0.00 0.00
0.00 0.00 0.00 0.00 0.00 0.00 0.00 0.00 0.00 0.00 0.00 0.00 0.00 0.00 0.00 0.00 0.00 0.00 0.00 0.00 0.00 0.00 0.00 0.00 0.00 0.00 0.00 0.00 0.00 0.00 0.00 0.00
0.00 0.00 0.00 0.00 0.00 0.00 0.00 0.00 0.00 0.00 0.00 0.00 0.00 0.00 0.00 0.00 0.00 0.00 0.00 0.00 0.00 0.00 0.00 0.00 0.00 0.00 0.00 0.00 0.00 0.00 0.00 0.00
0.00 0.00 0.00 0.00 0.00 0.00 0.00 0.00 0.00 0.00 0.00 0.00 0.00 0.00 0.00 0.00 0.00 0.00 0.00 0.00 0.00 0.00 0.00 0.00 0.00 0.00 0.00 0.00 0.00 0.00 0.00 0.00
0.00 0.00 0.00 0.00 0.00 0.00 0.00 0.00 0.00 0.00 0.00 0.00 0.00 0.00 0.00 0.00 0.00 0.00 0.00 0.00 0.00 0.00 0.00 0.00 0.00 0.00 0.00 0.00 0.00 0.00 0.00 0.00
0.00 0.00 0.00 0.00 0.00 0.00 0.00 0.00 0.00 0.00 0.00 0.00 0.00 0.00 0.00 0.00 0.00 0.00 0.00 0.00 0.00 0.00 0.00 0.00 0.00 0.00 0.00 0.00 0.00 0.00 0.00 0.00
0.00 0.00 0.00 0.00 0.00 0.00 0.00 0.00 0.00 0.00 0.00 0.00 0.00 0.00 0.00 0.00 0.00 0.00 0.00 0.00 0.00 0.00 0.00 0.00 0.00 0.00 0.00 0.00 0.00 0.00 0.00 0.00
0.00 0.00 0.00 0.00 0.00 0.00 0.00 0.00 0.00 0.00 0.00 0.00 0.00 0.00 0.00 0.00 0.00 0.00 0.00 0.00 0.00 0.00 0.00 0.00 0.00 0.00 0.00 0.00 0.00 0.00 0.00 0.00
0.00 0.00 0.00 0.00 0.00 0.00 0.00 0.00 0.00 0.00 0.00 0.00 0.00 0.00 0.00 0.00 0.00 0.00 0.00 0.00 0.00 0.00 0.00 0.00 0.00 0.00 0.00 0.00 0.00 0.00 0.00 0.00
0.00 0.00 0.00 0.00 0.00 0.00 0.00 0.00 0.00 0.00 0.00 0.00 0.00 0.00 0.00 0.00 0.00 0.00 0.00 0.00 0.00 0.00 0.00 0.00 0.00 0.00 0.00 0.00 0.00 0.00 0.00 0.00
0.00 0.00 0.00 0.00 0.00 0.00 0.00 0.00 0.00 0.00 0.00 0.00 0.00 0.00 0.00 0.00 0.00 0.00 0.00 0.00 0.00 0.00 0.00 0.00 0.00 0.00 0.00 0.00 0.00 0.00 0.00 0.00
0.00 0.00 0.00 0.00 0.00 0.00 0.00 0.00 0.00 0.00 0.00 0.00 0.00 0.00 0.00 0.00 0.00 0.00 0.00 0.00 0.00 0.00 0.00 0.00 0.00 0.00 0.00 0.00 0.00 0.00 0.00 0.00
0.00 0.00 0.00 0.00 0.00 0.00 0.00 0.00 0.00 0.00 0.00 0.00 0.00 0.00 0.00 0.00 0.00 0.00 0.00 0.00 0.00 0.00 0.00 0.00 0.00 0.00 0.00 0.00 0.00 0.00 0.00 0.00
0.00 0.00 0.00 0.00 0.00 0.00 0.00 0.00 0.00 0.00 0.00 0.00 0.00 0.00 0.00 0.00 0.00 0.00 0.00 0.00 0.00 0.00 0.00 0.00 0.00 0.00 0.00 0.00 0.00 0.00 0.00 0.00
0.00 0.00 0.00 0.00 0.00 0.00 0.00 0.00 0.00 0.00 0.00 0.00 0.00 0.00 0.00 0.00 0.00 0.00 0.00 0.00 0.00 0.00 0.00 0.00 0.00 0.00 0.00 0.00 0.00 0.00 0.00 0.00
0.00 0.00 0.00 0.00 0.00 0.00 0.00 0.00 0.00 0.00 0.00 0.00 0.00 0.00 0.00 0.00 0.00 0.00 0.00 0.00 0.00 0.00 0.00 0.00 0.00 0.00 0.00 0.00 0.00 0.00 0.00 0.00
0.00 0.00 0.00 0.00 0.00 0.00 0.00 0.00 0.00 0.00 0.00 0.00 0.00 0.00 0.00 0.00 0.00 0.00 0.00 0.00 0.00 0.00 0.00 0.00 0.00 0.00 0.00 0.00 0.00 0.00 0.00 0.00
0.00 0.00 0.00 0.00 0.00 0.00 0.00 0.00 0.00 0.00 0.00 0.00 0.00 0.00 0.00 0.00 0.00 0.00 0.00 0.00 0.00 0.00 0.00 0.00 0.00 0.00 0.00 0.00 0.00 0.00 0.00 0.00
0.00 0.00 0.00 0.00 0.00 0.00 0.00 0.00 0.00 0.00 0.00 0.00 0.00 0.00 0.00 0.00 0.00 0.00 0.00 0.00 0.00 0.00 0.00 0.00 0.00 0.00 0.00 0.00 0.00 0.00 0.00 0.00
MSLP
1005.56 1007.04 1008.22 1009.13 1010.03 1011.36 1012.38 1013.23 1013.90 1014.53 1015.03 1015.59 1015.91 1016.49 1016.79 1016.86 1017.27 1017.82 1017.86 1018.08 1018.02 1017.60 1017.98 1018.22 1017.90 1017.79 1017.89 1017.97 1017.88 1017.63 1017.35 1017.31
1004.98 1006.77 1008.20 1009.11 1009.94 1011.03 1011.96 1012.92 1013.66 1014.21 1014.62 1014.87 1015.36 1015.88 1016.74 1017.14 1017.65 1018.06 1018.15 1018.26 1018.24 1017.93 1017.87 1018.12 1018.07 1018.23 1018.45 1018.44 1018.17 1017.73 1017.40 1017.53
1003.92 1006.09 1007.86 1008.99 1009.88 1010.89 1011.55 1012.36 1013.20 1013.65 1013.95 1014.20 1014.74 1015.66 1016.52 1017.02 1017.80 1018.39 1018.47 1018.54 1018.49 1018.29 1018.21 1018.41 1018.50 1018.49 1018.83 1018.87 1018.66 1017.96 1017.58 1017.82
1003.28 1005.31 1007.42 1008.90 1009.75 1010.59 1011.15 1011.77 1012.61 1013.03 1013.42 1014.06 1014.83 1015.91 1017.02 1017.52 1017.97 1018.31 1018.60 1018.80 1018.77 1018.64 1018.63 1018.67 1018.76 1018.79 1019.05 1019.12 1018.94 1018.70 1017.98 1018.01
1002.66 1004.13 1006.77 1008.62 1009.96 1010.70 1011.02 1011.58 1012.32 1012.76 1013.17 1014.04 1014.62 1015.25 1015.98 1016.53 1017.30 1018.16 1018.72 1018.97 1019.07 1019.14 1019.08 1019.05 1019.03 1019.05 1019.17 1019.28 1019.35 1019.11 1018.75 1018.52
1002.07 1002.81 1005.24 1007.64 1009.47 1010.71 1011.26 1011.72 1012.25 1012.86 1013.53 1013.66 1014.36 1014.51 1014.99 1016.39 1017.40 1018.31 1018.54 1018.92 1019.16 1019.23 1019.31 1019.39 1019.34 1019.49 1019.85 1019.73 1019.61 1019.55 1019.57 1019.40
1002.03 1002.58 1004.47 1006.80 1008.66 1010.09 1011.39 1011.60 1012.01 1012.44 1013.38 1013.50 1013.72 1013.89 1015.05 1016.05 1017.11 1017.85 1018.14 1018.65 1019.16 1019.56 1019.63 1019.68 1019.73 1019.90 1020.10 1020.21 1020.36 1020.43 1020.22 1020.22
1002.91 1002.82 1004.17 1006.43 1008.15 1009.70 1011.18 1011.95 1012.41 1012.72 1013.23 1013.43 1013.65 1013.97 1015.11 1015.73 1016.64 1017.38 1017.97 1018.41 1019.01 1019.53 1019.76 1020.05 1020.22 1020.49 1020.58 1020.51 1020.73 1020.92 1021.14 1021.08
1004.69 1004.71 1004.90 1006.18 1008.20 1009.75 1011.18 1012.15 1012.27 1012.86 1013.42 1013.50 1013.77 1014.26 1015.15 1015.64 1016.27 1017.24 1017.92 1018.22 1018.93 1019.66 1020.07 1020.34 1020.83 1021.10 1021.17 1021.01 1021.05 1021.31 1021.40 1021.70
1005.81 1005.84 1005.98 1006.80 1008.11 1009.59 1011.16 1012.19 1012.48 1013.09 1013.65 1013.93 1014.27 1014.69 1014.97 1015.81 1016.61 1017.49 1018.47 1018.83 1019.39 1019.76 1020.21 1020.77 1021.15 1021.65 1021.68 1021.86 1021.59 1021.63 1021.81 1022.06
1005.96 1006.55 1006.55 1007.02 1008.03 1009.45 1011.03 1012.02 1012.56 1013.36 1014.02 1014.38 1014.68 1015.17 1015.62 1016.46 1017.33 1017.79 1018.79 1019.24 1019.68 1020.14 1020.49 1020.65 1021.28 1021.93 1022.05 1022.22 1022.17 1022.23 1022.26 1022.46
1005.64 1005.82 1006.95 1007.50 1008.29 1009.40 1010.92 1011.88 1012.51 1013.41 1014.15 1014.69 1015.04 1015.44 1016.04 1016.92 1017.80 1018.47 1019.31 1019.71 1019.94 1020.29 1020.79 1021.09 1021.65 1021.89 1022.41 1022.83 1022.93 1022.82 1022.65 1022.92
1006.44 1006.09 1006.47 1007.71 1008.74 1009.65 1010.68 1011.72 1012.34 1013.15 1014.17 1014.65 1015.01 1015.67 1016.51 1017.36 1018.06 1018.67 1019.68 1020.46 1020.37 1020.40 1020.77 1021.44 1022.22 1022.53 1022.77 1023.05 1023.09 1022.85 1022.73 1022.87
1007.01 1006.95 1007.00 1007.53 1008.63 1009.78 1010.96 1011.95 1012.13 1013.02 1013.99 1014.45 1014.99 1015.65 1016.46 1017.71 1018.52 1019.34 1020.07 1020.65 1020.93 1021.09 1021.10 1022.00 1022.65 1023.07 1023.48 1023.51 1023.69 1023.24 1023.15 1023.79
1007.07 1007.37 1007.73 1007.95 1008.70 1009.84 1010.88 1011.79 1012.59 1013.12 1013.77 1014.46 1014.61 1015.51 1016.78 1017.56 1018.93 1019.66 1020.28 1020.82 1021.33 1021.27 1021.63 1022.37 1022.86 1023.31 1023.91 1024.06 1023.92 1023.76 1023.93 1024.66
1006.85 1007.78 1008.20 1008.72 1009.04 1010.02 1010.96 1011.86 1012.65 1013.26 1013.90 1014.76 1015.53 1016.03 1017.04 1018.09 1019.16 1020.06 1020.49 1021.11 1021.47 1021.48 1022.01 1022.79 1023.51 1023.47 1024.39 1024.16 1024.01 1024.28 1024.51 1024.62
1006.71 1007.80 1008.46 1008.95 1009.61 1010.22 1010.85 1011.79 1012.65 1013.40 1014.32 1015.36 1016.33 1016.97 1017.21 1018.68 1019.55 1020.27 1021.17 1021.52 1022.18 1022.01 1022.21 1023.32 1024.13 1024.54 1025.53 1024.73 1024.06 1024.43 1024.52 1024.74
1007.05 1007.38 1008.21 1009.06 1009.39 1010.05 1010.86 1011.61 1012.55 1013.62 1014.82 1015.62 1016.62 1017.33 1017.60 1019.19 1020.41 1020.99 1021.51 1022.00 1022.15 1022.04 1022.90 1023.96 1024.81 1025.72 1025.99 1025.09 1024.77 1024.75 1025.04 1025.51
1007.57 1007.58 1008.20 1009.36 1009.87 1010.27 1011.02 1011.80 1012.72 1013.86 1015.00 1015.99 1017.07 1018.11 1018.33 1019.56 1020.55 1021.25 1021.77 1022.10 1022.59 1022.86 1023.89 1024.43 1025.46 1026.33 1026.14 1025.93 1025.69 1025.77 1026.34 1026.64
Thickness
5730 5719 5714 5707 5701 5691 5682 5675 5668 5661 5656 5651 5648 5643 5640 5638 5633 5628 5628 5627 5626 5629 5625 5622 5624 5625 5624 5624 5624 5627 5629 5628
5723 5714 5705 5698 5693 5684 5676 5668 5662 5656 5651 5648 5643 5639 5631 5626 5622 5619 5619 5618 5618 5620 5619 5616 5615 5614 5612 5612 5615 5618 5620 5618
5720 5708 5695 5687 5681 5674 5671 5664 5657 5652 5649 5645 5640 5632 5624 5619 5613 5609 5609 5608 5609 5610 5610 5607 5605 5604 5601 5600 5602 5607 5609 5606
5713 5699 5687 5677 5671 5667 5664 5660 5653 5648 5644 5638 5629 5620 5609 5606 5604 5601 5599 5597 5597 5598 5598 5597 5595 5594 5591 5589 5590 5591 5596 5595
5711 5698 5682 5669 5662 5657 5655 5651 5646 5641 5636 5627 5621 5614 5607 5605 5600 5593 5589 5587 5586 5586 5585 5585 5584 5582 5581 5579 5577 5578 5580 5580
5706 5704 5686 5670 5656 5646 5643 5639 5635 5630 5623 5621 5614 5612 5608 5595 5589 5582 5581 5577 5576 5575 5574 5572 5571 5569 5565 5565 5564 5563 5562 5562
5699 5698 5682 5666 5653 5641 5630 5627 5624 5622 5615 5613 5609 5607 5597 5587 5580 5575 5574 5570 5565 5561 5560 5559 5557 5555 5552 5549 5547 5545 5545 5542
5678 5682 5671 5657 5645 5633 5621 5613 5609 5607 5603 5602 5600 5596 5586 5579 5571 5567 5563 5560 5555 5550 5546 5543 5541 5538 5536 5535 5532 5528 5524 5523
5648 5652 5653 5646 5629 5618 5607 5599 5597 5594 5588 5588 5587 5582 5574 5569 5564 5556 5551 5549 5543 5536 5531 5528 5522 5519 5518 5519 5516 5513 5511 5507
5626 5629 5631 5626 5617 5606 5592 5583 5581 5577 5572 5570 5568 5565 5563 5556 5549 5542 5533 5530 5525 5522 5518 5510 5507 5503 5501 5499 5501 5498 5496 5494
5613 5609 5612 5611 5604 5595 5582 5573 5568 5561 5554 5551 5549 5546 5544 5537 5530 5526 5517 5513 5509 5505 5501 5499 5494 5489 5487 5485 5484 5482 5481 5478
5605 5605 5596 5594 5589 5580 5569 5560 5556 5549 5540 5533 5531 5528 5524 5518 5511 5505 5499 5495 5493 5490 5486 5484 5479 5477 5473 5469 5466 5466 5468 5464
5587 5592 5588 5579 5571 5565 5558 5549 5544 5537 5528 5522 5518 5512 5506 5499 5494 5490 5482 5475 5476 5475 5476 5470 5462 5459 5457 5457 5456 5457 5457 5453
5568 5568 5569 5567 5558 5549 5539 5531 5531 5524 5515 5511 5506 5501 5495 5484 5479 5471 5466 5461 5459 5459 5461 5453 5447 5443 5441 5443 5440 5443 5442 5435
5553 5551 5547 5545 5541 5533 5523 5516 5510 5506 5502 5498 5497 5489 5479 5472 5462 5456 5451 5447 5444 5446 5444 5438 5433 5429 5427 5427 5427 5427 5424 5416
5540 5531 5526 5519 5518 5511 5503 5496 5491 5489 5486 5480 5474 5470 5464 5456 5447 5440 5437 5432 5430 5433 5430 5422 5414 5418 5414 5418 5416 5412 5408 5407
5524 5511 5504 5501 5494 5490 5485 5479 5474 5469 5466 5458 5451 5448 5448 5437 5432 5426 5419 5417 5415 5417 5416 5407 5399 5400 5396 5401 5405 5400 5399 5395
5508 5504 5495 5486 5483 5477 5470 5464 5457 5451 5444 5440 5436 5433 5433 5421 5411 5406 5404 5402 5404 5405 5398 5392 5385 5380 5381 5388 5388 5388 5385 5380
5495 5493 5486 5471 5464 5462 5455 5445 5438 5433 5428 5423 5417 5411 5412 5404 5397 5391 5391 5392 5387 5387 5382 5379 5372 5367 5371 5371 5372 5370 5364 5360